Prague, Czech Republic

7:31 PM CET on March 25, 2017 (GMT +0100)
Prague-Ruzyne Airport

Weather History for LKPR - August, 2012

Change the Weather History Date:

Saturday, August 25, 2012

  Actual Average Record
Temperature  
Mean Temperature 72 °F -  
Max Temperature 82 °F 67 °F 84 °F (2001)
Min Temperature 63 °F 48 °F 43 °F (2014)
Cooling Degree Days 8    
Growing Degree Days 22 (Base 50)    
Moisture  
Dew Point 59 °F    
Average Humidity 68    
Maximum Humidity 88    
Minimum Humidity 45    
Precipitation  
Precipitation 0.02 in 0.06 in - ()
Sea Level Pressure  
Sea Level Pressure 29.84 in    
Wind  
Wind Speed 12 mph ()    
Max Wind Speed 22 mph    
Max Gust Speed -    
Visibility 6.6 miles    
Events Rain , Thunderstorm    
Averages and records for this station are not official NWS values.
T = Trace of Precipitation, MM = Missing Value Source: Averaged Metar Reports

Daily Weather History Graph

Daily Weather History Graph

Search for Another Location

Airport or City:

Trip Planner

Search our weather history database for the weather conditions in past years. The results will help you decide how hot, cold, wet, or windy it might be!

Date:

Astronomy

Aug. 25, 2012 Rise Set
Actual Time 6:07 AM CEST 8:01 PM CEST
Civil Twilight 5:33 AM CEST 8:35 PM CEST
Nautical Twilight 4:50 AM CEST 9:18 PM CEST
Astronomical Twilight 4:02 AM CEST 10:05 PM CEST
Moon 3:37 PM CEST No Moon Set
Length of Visible Light 15h 02m
Length of Day
13h 53m
First Quarter, 60% of the Moon is Illuminated
Aug 25
First Quarter
Aug 31
Full
Sep 8
Last Quarter
Sep 16
New
Sep 22
First Quarter

Hourly Weather History & Observations

Time (CEST) Temp. Heat Index Dew Point Humidity Pressure Visibility Wind Dir Wind Speed Gust Speed Precip Events Conditions
12:00 AM 66.2 °F - 60.8 °F 83% 29.83 in 6.2 mi WSW 10.4 mph - N/A   Partly Cloudy
12:30 AM 66.2 °F - 60.8 °F 83% 29.83 in 6.2 mi SW 15.0 mph - N/A Rain Light Rain
1:00 AM 66.2 °F - 60.8 °F 83% 29.83 in 6.2 mi SW 11.5 mph - N/A Rain Light Rain
1:30 AM 66.2 °F - 60.8 °F 83% 29.83 in 6.2 mi SW 15.0 mph - N/A Rain Light Rain
2:00 AM 65 °F - 60 °F 79% 29.82 in 19 mi SW 15.7 mph - - Rain Light Rain
2:00 AM 64.4 °F - 59.0 °F 83% 29.83 in 6.2 mi SW 17.3 mph - N/A Rain Light Rain
2:30 AM 64.4 °F - 60.8 °F 88% 29.80 in 6.2 mi South 16.1 mph - N/A Rain Light Rain
3:00 AM 64.4 °F - 59.0 °F 83% 29.83 in 6.2 mi SSW 12.7 mph - N/A Rain Light Rain
3:30 AM 64.4 °F - 59.0 °F 83% 29.83 in 6.2 mi SSW 9.2 mph - N/A Rain Light Rain
4:00 AM 62.6 °F - 59.0 °F 88% 29.83 in 6.2 mi SSW 13.8 mph - N/A Rain Light Rain
4:30 AM 62.6 °F - 59.0 °F 88% 29.83 in 6.2 mi SSW 13.8 mph - N/A Rain Light Rain
5:00 AM 62.6 °F - 59.0 °F 88% 29.83 in - SSW 16.1 mph - N/A   Clear
5:30 AM 64.4 °F - 59.0 °F 83% 29.83 in - SW 15.0 mph - N/A   Clear
6:00 AM 64.4 °F - 59.0 °F 83% 29.83 in - SSW 21.9 mph - N/A   Clear
6:30 AM 64.4 °F - 59.0 °F 83% 29.83 in - SSW 21.9 mph - N/A   Clear
7:00 AM 64.4 °F - 59.0 °F 83% 29.86 in - SW 19.6 mph - N/A   Clear
7:30 AM 64.4 °F - 59.0 °F 83% 29.86 in - SW 15.0 mph - N/A   Clear
8:00 AM 65 °F - 60 °F 77% 29.84 in 28 mi WSW 13.4 mph - -   Partly Cloudy
8:00 AM 64.4 °F - 59.0 °F 83% 29.86 in - SW 13.8 mph - N/A   Clear
8:30 AM 66.2 °F - 60.8 °F 83% 29.86 in - SW 15.0 mph - N/A   Clear
9:00 AM 68.0 °F - 60.8 °F 78% 29.86 in - SW 16.1 mph - N/A   Clear
9:30 AM 68.0 °F - 60.8 °F 78% 29.89 in 6.2 mi SW 18.4 mph - N/A   Partly Cloudy
10:00 AM 68.0 °F - 59.0 °F 73% 29.89 in 6.2 mi SW 15.0 mph - N/A   Partly Cloudy
10:30 AM 71.6 °F - 59.0 °F 64% 29.89 in 6.2 mi SW 15.0 mph - N/A   Partly Cloudy
11:00 AM 73.4 °F - 59.0 °F 61% 29.86 in 6.2 mi SW 15.0 mph - N/A   Partly Cloudy
11:30 AM 75.2 °F - 57.2 °F 53% 29.86 in 6.2 mi SW 15.0 mph - N/A   Partly Cloudy
12:00 PM 73.4 °F - 59.0 °F 61% 29.89 in 6.2 mi SSW 11.5 mph - N/A   Scattered Clouds
12:30 PM 73.4 °F - 60.8 °F 65% 29.89 in 6.2 mi SSW 11.5 mph - N/A   Scattered Clouds
1:00 PM 77.0 °F - 60.8 °F 57% 29.86 in 6.2 mi SW 11.5 mph - N/A   Scattered Clouds
1:30 PM 75.2 °F - 59.0 °F 57% 29.86 in 6.2 mi SSW 10.4 mph - N/A   Scattered Clouds
2:00 PM 74 °F - 61 °F 54% 29.82 in 47 mi South 6.7 mph - -   Partly Cloudy
2:00 PM 75.2 °F - 60.8 °F 61% 29.86 in 6.2 mi South 8.1 mph - N/A   Scattered Clouds
2:30 PM 75.2 °F - 60.8 °F 61% 29.86 in 6.2 mi South 5.8 mph - N/A   Scattered Clouds
3:00 PM 80.6 °F 81.5 °F 60.8 °F 51% 29.86 in 6.2 mi SW 16.1 mph - N/A   Partly Cloudy
3:30 PM 80.6 °F 81.1 °F 59.0 °F 48% 29.86 in 6.2 mi SW 15.0 mph - N/A   Partly Cloudy
4:00 PM 80.6 °F 80.8 °F 57.2 °F 45% 29.83 in - SW 15.0 mph - N/A   Clear
4:30 PM 80.6 °F 80.8 °F 57.2 °F 45% 29.83 in - SW 16.1 mph - N/A   Clear
5:00 PM 80.6 °F 80.8 °F 57.2 °F 45% 29.83 in - South 13.8 mph - N/A   Clear
5:30 PM 78.8 °F - 57.2 °F 47% 29.83 in - SSW 12.7 mph - N/A   Clear
6:00 PM 77.0 °F - 55.4 °F 47% 29.83 in - SW 15.0 mph - N/A   Clear
6:30 PM 77.0 °F - 57.2 °F 50% 29.83 in - SW 11.5 mph - N/A   Clear
7:00 PM 77.0 °F - 57.2 °F 50% 29.83 in - SW 10.4 mph - N/A   Clear
7:30 PM 75.2 °F - 57.2 °F 53% 29.80 in - SSW 9.2 mph - N/A   Clear
8:00 PM 71 °F - 57 °F 52% 29.78 in 37 mi SSW 6.7 mph - -   Scattered Clouds
8:00 PM 71.6 °F - 57.2 °F 60% 29.83 in - SSW 6.9 mph - N/A   Clear
8:30 PM 71.6 °F - 57.2 °F 60% 29.83 in - SSW 8.1 mph - N/A   Clear
9:00 PM 69.8 °F - 57.2 °F 64% 29.83 in - SSW 9.2 mph - N/A   Clear
9:30 PM 69.8 °F - 57.2 °F 64% 29.83 in - South 8.1 mph - N/A   Clear
10:00 PM 71.6 °F - 59.0 °F 64% 29.83 in 6.2 mi South 10.4 mph - N/A Thunderstorm Partly Cloudy
10:30 PM 69.8 °F - 60.8 °F 73% 29.83 in 6.2 mi South 8.1 mph - N/A Thunderstorm Partly Cloudy
11:00 PM 69.8 °F - 60.8 °F 73% 29.83 in - South 5.8 mph - N/A   Clear
11:30 PM 68.0 °F - 59.0 °F 73% 29.83 in 6.2 mi WNW 6.9 mph - N/A   Partly Cloudy
11:33 PM 69.8 °F - 59.0 °F 68% 29.83 in 6.2 mi West 5.8 mph - N/A Rain Light Rain
11:36 PM 69.8 °F - 59.0 °F 68% 29.83 in 6.2 mi West 5.8 mph - N/A Rain , Thunderstorm Light Rain